Location: Ferintosh
(52.7647°N, 112.9692°W)
Time: 13:55:29
(UTC+00:00)

Transit 2A Rocket - Pass Details

Date: 23 May 2024
Orbit: 583 x 910 km, 66.7° (Epoch: 22 June)

Event Time Altitude Azimuth Distance (km) Brightness Sun altitude
Rises 11:05:15 0° 198° (SSW) 2,987 7.5 -2.9°
Reaches altitude 10° 11:07:30 10° 193° (SSW) 2,125 6.8 -2.6°
Maximum altitude 11:12:09 48° 119° (ESE) 949 5.7 -2.1°
Drops below altitude 10° 11:17:17 10° 47° (NE) 2,350 9.7 -1.4°
Sets 11:19:53 0° 42° (NE) 3,337 10.7 -1.1°
